Ithaca, NY

9:05 PM EST on December 11, 2017 (GMT -0500)
Tompkins County

Weather History for KITH - April, 2014

Change the Weather History Date:

Thursday, April 10, 2014

  Actual Average Record
Temperature  
Mean Temperature 46 °F -  
Max Temperature 66 °F 50 °F 80 °F (2017)
Min Temperature 25 °F 30 °F 14 °F (1950)
Degree Days  
Heating Degree Days 20    
Moisture  
Dew Point 28 °F    
Average Humidity 48    
Maximum Humidity 91    
Minimum Humidity 24    
Precipitation  
Precipitation 0.00 in - - ()
Sea Level Pressure  
Sea Level Pressure 29.96 in    
Wind  
Wind Speed 9 mph (South)    
Max Wind Speed 24 mph    
Max Gust Speed 33 mph    
Visibility 10 miles    
Events      
Averages and records for this station are not official NWS values.
T = Trace of Precipitation, MM = Missing Value Source: NWS Daily Summary

Daily Weather History Graph

Daily Weather History Graph

Search for Another Location

Airport or City:

Trip Planner

Search our weather history database for the weather conditions in past years. The results will help you decide how hot, cold, wet, or windy it might be!

Date:

Astronomy

Apr. 10, 2014 Rise Set
Actual Time 6:32 AM EDT 7:41 PM EDT
Civil Twilight 6:04 AM EDT 8:10 PM EDT
Nautical Twilight 5:29 AM EDT 8:45 PM EDT
Astronomical Twilight 4:53 AM EDT 9:22 PM EDT
Moon 3:18 PM EDT (4/10) 4:00 AM EDT (4/10)
Length of Visible Light 14h 06m
Length of Day
13h 09m
Waxing Gibbous, 79% of the Moon is Illuminated
Apr 10
Waxing Gibbous
Apr 15
Full
Apr 22
Last Quarter
Apr 29
New
May 6
First Quarter

Hourly Weather History & Observations

Time (EDT) Temp. Windchill Dew Point Humidity Pressure Visibility Wind Dir Wind Speed Gust Speed Precip Events Conditions
12:56 AM 26.1 °F - 23.0 °F 88% 30.06 in 10.0 mi Calm Calm - N/A   Clear
1:56 AM 25.2 °F - 23.0 °F 91% 30.06 in 10.0 mi Calm Calm - N/A   Clear
2:56 AM 25.2 °F 20.9 °F 21.0 °F 84% 30.05 in 10.0 mi SE 3.5 mph - N/A   Clear
3:56 AM 25.2 °F 19.5 °F 21.0 °F 84% 30.05 in 10.0 mi SE 4.6 mph - N/A   Clear
4:56 AM 25.2 °F 20.9 °F 21.0 °F 84% 30.06 in 10.0 mi East 3.5 mph - N/A   Clear
5:56 AM 31.1 °F 23.7 °F 22.1 °F 69% 30.06 in 10.0 mi South 8.1 mph - N/A   Clear
6:18 AM 33.8 °F 25.8 °F 21.2 °F 60% 30.04 in 10.0 mi South 10.4 mph - N/A   Clear
6:56 AM 34.9 °F 28.3 °F 23.0 °F 62% 30.08 in 10.0 mi South 8.1 mph - N/A   Clear
8:56 AM 45.9 °F 40.0 °F 27.1 °F 48% 30.09 in 10.0 mi South 12.7 mph - N/A   Clear
9:56 AM 50.9 °F - 28.0 °F 41% 30.06 in 10.0 mi SSW 17.3 mph 21.9 mph N/A   Clear
10:56 AM 54.9 °F - 30.0 °F 39% 30.04 in 10.0 mi SSW 12.7 mph - N/A   Clear
11:56 AM 59.9 °F - 32.0 °F 35% 30.00 in 10.0 mi SW 18.4 mph 26.5 mph N/A   Clear
12:56 PM 61.9 °F - 30.0 °F 30% 29.97 in 10.0 mi SW 20.7 mph 27.6 mph N/A   Clear
1:56 PM 63.9 °F - 31.1 °F 29% 29.94 in 10.0 mi SSW 19.6 mph 28.8 mph N/A   Mostly Cloudy
2:56 PM 65.8 °F - 31.1 °F 27% 29.91 in 10.0 mi SW 19.6 mph 28.8 mph N/A   Clear
3:56 PM 66.9 °F - 31.1 °F 26% 29.86 in 10.0 mi South 23.0 mph 33.4 mph N/A   Clear
4:56 PM 66.9 °F - 29.1 °F 24% 29.85 in 10.0 mi SSW 20.7 mph 31.1 mph N/A   Clear
5:56 PM 65.8 °F - 30.0 °F 26% 29.83 in 10.0 mi South 16.1 mph 25.3 mph N/A   Clear
6:56 PM 63.9 °F - 30.0 °F 28% 29.83 in 10.0 mi SSW 24.2 mph 32.2 mph N/A   Mostly Cloudy
7:56 PM 61.9 °F - 32.0 °F 33% 29.83 in 10.0 mi SSW 18.4 mph 28.8 mph N/A   Mostly Cloudy
8:56 PM 61.0 °F - 32.0 °F 34% 29.84 in 10.0 mi SSW 16.1 mph 25.3 mph N/A   Partly Cloudy
9:56 PM 61.0 °F - 32.0 °F 34% 29.87 in 10.0 mi SSW 18.4 mph 26.5 mph N/A   Scattered Clouds
10:56 PM 59.0 °F - 32.0 °F 36% 29.85 in 10.0 mi South 17.3 mph 23.0 mph N/A   Overcast
11:56 PM 59.0 °F - 32.0 °F 36% 29.85 in 10.0 mi SSW 13.8 mph - N/A   Overcast